Voltar ao catálogo

CZ-5 R/B

AtivoGTO
NORAD 58583·ROCKET BODY·🇨🇳 China

Lançado Dec 15, 2023 de Wenchang Space Launch Site

Loading…

TLE

ObsoletoSource: Space-Track

Época: Sep 13, 2026, 05:57 UTC

1 58583U 23197B   26256.24842743  .00001904  00000-0  67850-3 0  9999
2 58583  18.7048 246.5972 7134947 233.7352  37.8363  2.45655205 24374

Acompanhe CZ-5 R/B em tempo real com AllMySat

Download on the App Store